SVA721 OEJN-EGLL

Flight info

Callsign SVA721
Flight time N/A
Altitude 38000
Route MIGDA L677 EMOVA/N0489F400 L677 CVO L617 NOZ L551 ANTAR DCT RIGRO DCT DISOR DCT LONTA UL608 DOLEV DCT IRDIV DCT PODET DCT SIMBA DCT GASKA DCT MAPOX DCT OTMEC DCT ABNED L980 LOGAN
Aircraft B789/H-SDE1E2E3FGHIJ2J3J4J5M1RWXY/LB1D1

Departure

Time 2026-05-01 11:22
Airport King Abdulaziz International Airport (OEJN)

Arrival

Time N/A
Airport London Heathrow Airport (EGLL)
Time Latitude Longitude Altitude Speed Heading
2026-05-01 10:58 21.66506 39.17316 40 ft 0 kts 233°
2026-05-01 11:10 21.66514 39.17327 40 ft 2 kts 231°
2026-05-01 11:10 21.66524 39.17341 39 ft 2 kts 231°
2026-05-01 11:10 21.66534 39.17355 40 ft 2 kts 229°
2026-05-01 11:10 21.66545 39.17368 38 ft 2 kts 224°
2026-05-01 11:11 21.66557 39.17380 36 ft 2 kts 213°
2026-05-01 11:11 21.66572 39.17388 38 ft 2 kts 183°
2026-05-01 11:11 21.66585 39.17387 38 ft 1 kts 166°
2026-05-01 11:11 21.66586 39.17386 38 ft 0 kts 166°
2026-05-01 11:16 21.66576 39.17390 37 ft 2 kts 163°
2026-05-01 11:16 21.66555 39.17401 39 ft 4 kts 152°
2026-05-01 11:16 21.66525 39.17423 41 ft 6 kts 140°
2026-05-01 11:17 21.66497 39.17465 41 ft 8 kts 116°
2026-05-01 11:17 21.66473 39.17525 42 ft 10 kts 111°
2026-05-01 11:17 21.66455 39.17599 42 ft 11 kts 103°
2026-05-01 11:17 21.66441 39.17688 42 ft 13 kts 97°
2026-05-01 11:18 21.66454 39.17770 42 ft 7 kts 37°
2026-05-01 11:18 21.66487 39.17771 42 ft 6 kts 352°
2026-05-01 11:18 21.66549 39.17771 41 ft 12 kts 18°
2026-05-01 11:18 21.66604 39.17853 42 ft 16 kts 70°
2026-05-01 11:19 21.66619 39.17898 42 ft 0 kts 70°
2026-05-01 11:20 21.66620 39.17901 42 ft 1 kts 70°
2026-05-01 11:20 21.66626 39.17919 42 ft 4 kts 70°
2026-05-01 11:20 21.66642 39.17962 42 ft 9 kts 67°
2026-05-01 11:20 21.66684 39.18023 42 ft 10 kts 25°
2026-05-01 11:21 21.66765 39.18001 42 ft 24 kts 341°
2026-05-01 11:21 21.67077 39.17884 40 ft 70 kts 339°
2026-05-01 11:21 21.67668 39.17648 39 ft 112 kts 340°
2026-05-01 11:21 21.68541 39.17305 52 ft 151 kts 339°
2026-05-01 11:22 21.69496 39.16888 617 ft 148 kts 334°
2026-05-01 11:22 21.70493 39.16400 1198 ft 164 kts 335°
2026-05-01 11:22 21.71645 39.16223 1859 ft 181 kts
2026-05-01 11:22 21.72977 39.16266 2404 ft 204 kts 360°
2026-05-01 11:23 21.74461 39.16488 2894 ft 225 kts
2026-05-01 11:23 21.75927 39.15927 3668 ft 237 kts 324°
2026-05-01 11:23 21.77301 39.14757 4338 ft 264 kts 320°
2026-05-01 11:23 21.78792 39.13671 5635 ft 267 kts 326°
2026-05-01 11:24 21.80501 39.12781 6694 ft 278 kts 334°
2026-05-01 11:24 21.82302 39.11988 7833 ft 280 kts 333°
2026-05-01 11:24 21.85901 39.10224 10062 ft 289 kts 331°
2026-05-01 11:25 21.87791 39.09275 10695 ft 312 kts 332°
2026-05-01 11:25 21.92097 39.07166 11467 ft 367 kts 333°
2026-05-01 11:25 21.94475 39.05996 12120 ft 379 kts 333°
2026-05-01 11:26 21.96892 39.04806 13079 ft 385 kts 333°
2026-05-01 11:26 22.01834 39.02368 14843 ft 395 kts 332°
2026-05-01 11:26 22.04352 39.01126 15745 ft 399 kts 332°
2026-05-01 11:27 22.06888 38.99873 16625 ft 403 kts 332°
2026-05-01 11:27 22.09451 38.98607 17469 ft 407 kts 332°
2026-05-01 11:27 22.12013 38.97341 18280 ft 412 kts 332°
2026-05-01 11:27 22.14631 38.96048 18982 ft 416 kts 332°
2026-05-01 11:28 22.17282 38.94737 19698 ft 420 kts 331°
2026-05-01 11:28 22.19944 38.93419 20406 ft 424 kts 331°
2026-05-01 11:28 22.22644 38.92083 21096 ft 428 kts 331°
2026-05-01 11:29 22.28104 38.89380 22427 ft 436 kts 330°
2026-05-01 11:29 22.30872 38.88008 23044 ft 440 kts 330°
2026-05-01 11:29 22.36505 38.85216 24216 ft 447 kts 330°
2026-05-01 11:30 22.39330 38.83814 24763 ft 449 kts 330°
2026-05-01 11:30 22.42152 38.82413 25316 ft 451 kts 330°
2026-05-01 11:30 22.45014 38.80991 25833 ft 454 kts 330°
2026-05-01 11:30 22.47893 38.79561 26365 ft 457 kts 330°
2026-05-01 11:31 22.50793 38.78119 26886 ft 459 kts 330°
2026-05-01 11:31 22.53703 38.76672 27370 ft 461 kts 330°
2026-05-01 11:31 22.56627 38.75217 27877 ft 464 kts 329°
2026-05-01 11:31 22.59568 38.73753 28392 ft 466 kts 329°
2026-05-01 11:32 22.62513 38.72287 28867 ft 468 kts 329°
2026-05-01 11:32 22.65519 38.70866 29286 ft 473 kts 332°
2026-05-01 11:32 22.68578 38.69520 29721 ft 475 kts 332°
2026-05-01 11:32 22.71644 38.68152 30115 ft 478 kts 331°
2026-05-01 11:33 22.74728 38.66778 30451 ft 480 kts 332°
2026-05-01 11:33 22.77838 38.65402 30795 ft 483 kts 332°
2026-05-01 11:33 22.80953 38.64024 31146 ft 484 kts 331°
2026-05-01 11:33 22.84078 38.62634 31439 ft 487 kts 331°
2026-05-01 11:34 22.87218 38.61235 31737 ft 489 kts 331°
2026-05-01 11:34 22.90332 38.59853 32074 ft 491 kts 331°
2026-05-01 11:34 22.93499 38.58447 32489 ft 490 kts 330°
2026-05-01 11:34 22.96648 38.57047 32917 ft 488 kts 330°
2026-05-01 11:35 22.99786 38.55648 33366 ft 487 kts 330°
2026-05-01 11:35 23.02927 38.54247 33801 ft 487 kts 330°
2026-05-01 11:35 23.06050 38.52856 34177 ft 486 kts 330°
2026-05-01 11:35 23.09179 38.51462 34549 ft 484 kts 330°
2026-05-01 11:36 23.12296 38.50071 34927 ft 483 kts 330°
2026-05-01 11:36 23.15396 38.48687 35325 ft 481 kts 330°
2026-05-01 11:36 23.18494 38.47304 35745 ft 479 kts 330°
2026-05-01 11:36 23.21572 38.45929 36147 ft 477 kts 330°
2026-05-01 11:37 23.24633 38.44560 36509 ft 476 kts 330°
2026-05-01 11:37 23.27700 38.43188 36877 ft 475 kts 330°
2026-05-01 11:37 23.30719 38.41837 37245 ft 474 kts 330°
2026-05-01 11:37 23.33764 38.40474 37613 ft 473 kts 330°
2026-05-01 11:38 23.36808 38.39110 37878 ft 474 kts 330°
2026-05-01 11:38 23.42960 38.36350 37909 ft 478 kts 330°
2026-05-01 11:39 23.49084 38.33608 37918 ft 474 kts 329°
2026-05-01 11:39 23.54138 38.31332 37909 ft 473 kts 329°
2026-05-01 11:40 23.60229 38.28597 37911 ft 474 kts 329°
2026-05-01 11:40 23.66335 38.25848 37908 ft 474 kts 329°
2026-05-01 11:41 23.72438 38.23098 37907 ft 475 kts 329°
2026-05-01 11:41 23.78310 38.20449 37927 ft 476 kts 329°
2026-05-01 11:42 23.84431 38.17687 37907 ft 473 kts 329°
2026-05-01 11:42 23.90502 38.14942 37901 ft 472 kts 329°
2026-05-01 11:43 23.96571 38.12196 37854 ft 471 kts 329°
2026-05-01 11:43 24.02625 38.09455 37834 ft 471 kts 329°
2026-05-01 11:44 24.11685 38.05346 37833 ft 472 kts 329°
2026-05-01 11:44 24.17390 38.02032 37852 ft 458 kts 318°
2026-05-01 11:45 24.22677 37.98081 37843 ft 461 kts 318°
2026-05-01 11:45 24.27979 37.94102 37820 ft 461 kts 318°
2026-05-01 11:46 24.33252 37.90145 37851 ft 459 kts 318°
2026-05-01 11:46 24.38528 37.86178 37863 ft 460 kts 318°
2026-05-01 11:47 24.43802 37.82213 37863 ft 459 kts 318°
2026-05-01 11:47 24.49069 37.78246 37881 ft 459 kts 318°
2026-05-01 11:48 24.54338 37.74275 37873 ft 459 kts 318°
2026-05-01 11:48 24.59568 37.70329 37890 ft 459 kts 318°
2026-05-01 11:49 24.64821 37.66363 37900 ft 457 kts 318°
2026-05-01 11:49 24.70064 37.62396 37901 ft 457 kts 318°
2026-05-01 11:50 24.75301 37.58435 37912 ft 456 kts 317°
2026-05-01 11:50 24.80533 37.54469 37909 ft 457 kts 317°
2026-05-01 11:51 24.85769 37.50498 37910 ft 458 kts 318°
2026-05-01 11:51 24.90982 37.46540 37917 ft 457 kts 318°
2026-05-01 11:52 24.96245 37.42541 37919 ft 456 kts 318°
2026-05-01 11:52 25.01435 37.38591 37919 ft 458 kts 317°
2026-05-01 11:53 25.06682 37.34595 37919 ft 458 kts 317°
2026-05-01 11:53 25.11931 37.30593 37923 ft 459 kts 317°
2026-05-01 11:54 25.17185 37.26583 37924 ft 459 kts 317°
2026-05-01 11:54 25.22434 37.22571 37924 ft 459 kts 317°
2026-05-01 11:55 25.27674 37.18565 37923 ft 457 kts 317°
2026-05-01 11:55 25.32893 37.14567 37919 ft 456 kts 317°
2026-05-01 11:56 25.38102 37.10572 37911 ft 456 kts 317°
2026-05-01 11:56 25.43299 37.06583 37914 ft 457 kts 317°
2026-05-01 11:57 25.48537 37.02558 37912 ft 458 kts 317°
2026-05-01 11:57 25.53777 36.98527 37932 ft 459 kts 317°
2026-05-01 11:58 25.58999 36.94508 37917 ft 455 kts 317°
2026-05-01 11:59 25.66801 36.88488 37912 ft 456 kts 317°
2026-05-01 11:59 25.72012 36.84466 37907 ft 456 kts 317°
2026-05-01 12:00 25.79784 36.78456 37903 ft 455 kts 317°
2026-05-01 12:01 25.87597 36.72404 37909 ft 454 kts 317°
2026-05-01 12:01 25.92739 36.68417 37900 ft 453 kts 317°
2026-05-01 12:02 25.97916 36.64394 37906 ft 456 kts 317°
2026-05-01 12:02 26.03115 36.60356 37900 ft 456 kts 317°
2026-05-01 12:03 26.08318 36.56306 37906 ft 456 kts 317°
2026-05-01 12:03 26.13520 36.52254 37923 ft 456 kts 317°
2026-05-01 12:04 26.18556 36.48035 37909 ft 448 kts 310°
2026-05-01 12:04 26.22860 36.43145 37902 ft 444 kts 308°
2026-05-01 12:05 26.27163 36.38195 37908 ft 445 kts 308°
2026-05-01 12:05 26.33647 36.30718 37912 ft 448 kts 308°
2026-05-01 12:06 26.37977 36.25718 37906 ft 447 kts 308°
2026-05-01 12:06 26.42291 36.20731 37901 ft 446 kts 308°
2026-05-01 12:07 26.46590 36.15755 37897 ft 445 kts 308°
2026-05-01 12:07 26.50877 36.10788 37895 ft 444 kts 308°
2026-05-01 12:08 26.55142 36.05841 37894 ft 444 kts 308°
2026-05-01 12:08 26.59429 36.00863 37896 ft 444 kts 308°
2026-05-01 12:09 26.63713 35.95883 37896 ft 444 kts 308°
2026-05-01 12:09 26.68032 35.90854 37903 ft 447 kts 308°
2026-05-01 12:10 26.74464 35.83358 37902 ft 447 kts 308°
2026-05-01 12:11 26.80922 35.75816 37906 ft 447 kts 308°
2026-05-01 12:11 26.85217 35.70795 37905 ft 446 kts 308°
2026-05-01 12:12 26.89501 35.65781 37906 ft 444 kts 308°
2026-05-01 12:12 26.93770 35.60778 37895 ft 444 kts 308°
2026-05-01 12:13 26.98046 35.55759 37897 ft 445 kts 308°
2026-05-01 12:13 27.02333 35.50724 37896 ft 447 kts 308°
2026-05-01 12:14 27.06632 35.45668 37895 ft 449 kts 308°
2026-05-01 12:14 27.10917 35.40624 37900 ft 448 kts 308°
2026-05-01 12:15 27.15214 35.35557 37890 ft 447 kts 308°
2026-05-01 12:15 27.19497 35.30503 37889 ft 446 kts 308°
2026-05-01 12:16 27.23769 35.25454 37888 ft 446 kts 308°
2026-05-01 12:16 27.28037 35.20405 37888 ft 445 kts 308°
2026-05-01 12:17 27.32306 35.15348 37890 ft 447 kts 308°
2026-05-01 12:17 27.36583 35.10276 37878 ft 447 kts 308°
2026-05-01 12:18 27.40860 35.05197 37915 ft 447 kts 308°
2026-05-01 12:18 27.45132 35.00119 37886 ft 450 kts 308°
2026-05-01 12:19 27.49431 34.95004 37877 ft 447 kts 309°
2026-05-01 12:19 27.53871 34.90084 37878 ft 449 kts 311°
2026-05-01 12:20 27.58426 34.85255 37878 ft 449 kts 311°
2026-05-01 12:20 27.62993 34.80437 37879 ft 450 kts 311°
2026-05-01 12:21 27.67529 34.75632 37881 ft 450 kts 311°
2026-05-01 12:21 27.72087 34.70804 37887 ft 448 kts 312°
2026-05-01 12:22 27.75851 34.66812 37884 ft 446 kts 312°
2026-05-01 12:22 27.81149 34.61184 37895 ft 447 kts 312°
2026-05-01 12:23 27.85683 34.56364 37898 ft 447 kts 312°
2026-05-01 12:23 27.90220 34.51532 37906 ft 447 kts 312°
2026-05-01 12:24 27.94724 34.46731 37912 ft 447 kts 312°
2026-05-01 12:24 27.99237 34.41920 37910 ft 443 kts 310°
2026-05-01 12:25 28.05160 34.33935 37917 ft 442 kts 306°
2026-05-01 12:26 28.09065 34.28528 37918 ft 444 kts 306°
2026-05-01 12:26 28.14907 34.20434 37930 ft 446 kts 306°
2026-05-01 12:27 28.20784 34.12273 37919 ft 445 kts 306°
2026-05-01 12:28 28.26011 34.05002 37940 ft 445 kts 306°
2026-05-01 12:29 28.31847 33.96871 37939 ft 445 kts 306°
2026-05-01 12:29 28.37685 33.88720 37948 ft 443 kts 306°
2026-05-01 12:30 28.43491 33.80597 37920 ft 442 kts 306°
2026-05-01 12:31 28.47366 33.75168 37944 ft 442 kts 306°
2026-05-01 12:31 28.51226 33.69752 37945 ft 442 kts 306°
2026-05-01 12:32 28.55100 33.64311 37945 ft 442 kts 306°
2026-05-01 12:32 28.60908 33.56170 37945 ft 441 kts 306°
2026-05-01 12:33 28.64770 33.50739 37939 ft 441 kts 306°
2026-05-01 12:33 28.68626 33.45296 37937 ft 441 kts 306°
2026-05-01 12:34 28.72479 33.39856 37939 ft 441 kts 306°
2026-05-01 12:34 28.76307 33.34444 37935 ft 441 kts 306°
2026-05-01 12:35 28.80153 33.28998 37934 ft 440 kts 306°
2026-05-01 12:35 28.83995 33.23551 37932 ft 440 kts 306°
2026-05-01 12:36 28.87827 33.18111 37930 ft 439 kts 306°
2026-05-01 12:36 28.91654 33.12671 37935 ft 438 kts 306°
2026-05-01 12:37 28.95467 33.07244 37935 ft 439 kts 306°
2026-05-01 12:37 28.99261 33.01837 37931 ft 439 kts 306°
2026-05-01 12:38 29.03082 32.96385 37932 ft 440 kts 306°
2026-05-01 12:38 29.06906 32.90920 37938 ft 440 kts 306°
2026-05-01 12:39 29.10726 32.85456 37934 ft 438 kts 306°
2026-05-01 12:39 29.14519 32.80021 37932 ft 437 kts 306°
2026-05-01 12:40 29.18306 32.74588 37938 ft 437 kts 306°
2026-05-01 12:40 29.22099 32.69140 37940 ft 437 kts 306°
2026-05-01 12:41 29.25885 32.63694 37939 ft 437 kts 306°
2026-05-01 12:41 29.29638 32.58285 37946 ft 435 kts 306°
2026-05-01 12:42 29.33367 32.52840 37954 ft 434 kts 306°
2026-05-01 12:42 29.37129 32.47364 37948 ft 438 kts 306°
2026-05-01 12:43 29.40892 32.41872 37947 ft 437 kts 306°
2026-05-01 12:43 29.44641 32.36395 37947 ft 437 kts 306°
2026-05-01 12:44 29.48392 32.30907 37952 ft 435 kts 306°
2026-05-01 12:45 29.55845 32.19982 37964 ft 435 kts 306°
2026-05-01 12:45 29.59571 32.14509 37961 ft 435 kts 306°
2026-05-01 12:46 29.63271 32.09066 37959 ft 435 kts 306°
2026-05-01 12:46 29.66991 32.03587 37966 ft 433 kts 306°
2026-05-01 12:47 29.70689 31.98133 37969 ft 432 kts 306°
2026-05-01 12:47 29.74390 31.92668 37967 ft 432 kts 306°
2026-05-01 12:48 29.78096 31.87185 37961 ft 434 kts 306°
2026-05-01 12:48 29.81683 31.81613 37969 ft 434 kts 304°
2026-05-01 12:49 29.85274 31.76034 37977 ft 432 kts 304°
2026-05-01 12:49 29.88846 31.70451 37974 ft 432 kts 304°
2026-05-01 12:50 29.92389 31.64923 37987 ft 431 kts 304°
2026-05-01 12:50 29.95992 31.59371 37940 ft 432 kts 304°
2026-05-01 12:51 29.99588 31.53801 37941 ft 433 kts 304°
2026-05-01 12:52 30.04971 31.45462 37932 ft 430 kts 304°
2026-05-01 12:52 30.10589 31.37393 37937 ft 433 kts 314°
2026-05-01 12:53 30.17202 31.30288 37943 ft 433 kts 314°
2026-05-01 12:54 30.21599 31.25573 37946 ft 434 kts 314°
2026-05-01 12:54 30.28207 31.18459 37958 ft 431 kts 314°
2026-05-01 12:55 30.34784 31.11368 37954 ft 431 kts 313°
2026-05-01 12:56 30.39185 31.06615 37957 ft 433 kts 313°
2026-05-01 12:56 30.43589 31.01853 37958 ft 433 kts 313°
2026-05-01 12:57 30.47992 30.97086 37956 ft 433 kts 313°
2026-05-01 12:57 30.54554 30.89970 37944 ft 431 kts 313°
2026-05-01 12:58 30.58934 30.85212 37940 ft 430 kts 313°
2026-05-01 12:59 30.65478 30.78092 37938 ft 430 kts 313°
2026-05-01 12:59 30.72029 30.70950 37939 ft 430 kts 313°
2026-05-01 13:00 30.78572 30.63804 37946 ft 430 kts 313°
2026-05-01 13:01 30.85114 30.56644 37955 ft 431 kts 313°
2026-05-01 13:02 30.91677 30.49448 37961 ft 432 kts 313°
2026-05-01 13:07 31.25830 29.90739 38009 ft 437 kts 324°
2026-05-01 13:07 31.28505 29.89010 37993 ft 438 kts 326°
2026-05-01 13:08 31.33870 29.85634 37998 ft 437 kts 326°
2026-05-01 13:08 31.39205 29.82306 38011 ft 437 kts 326°
2026-05-01 13:09 31.44554 29.78947 37978 ft 434 kts 326°
2026-05-01 13:09 31.49874 29.75609 37973 ft 434 kts 326°
2026-05-01 13:10 31.55200 29.72261 37986 ft 434 kts 326°
2026-05-01 13:10 31.60528 29.68908 37984 ft 435 kts 326°
2026-05-01 13:11 31.65860 29.65548 37989 ft 435 kts 326°
2026-05-01 13:11 31.71198 29.62179 37992 ft 435 kts 326°
2026-05-01 13:12 31.76533 29.58808 37984 ft 435 kts 326°
2026-05-01 13:12 31.81839 29.55451 37986 ft 436 kts 326°
2026-05-01 13:13 31.87183 29.52069 37980 ft 433 kts 326°
2026-05-01 13:13 31.92469 29.48712 37976 ft 432 kts 326°
2026-05-01 13:14 31.97767 29.45347 37980 ft 433 kts 326°
2026-05-01 13:14 32.03069 29.41975 37978 ft 433 kts 326°
2026-05-01 13:15 32.08354 29.38609 37974 ft 434 kts 326°
2026-05-01 13:15 32.13678 29.35214 37983 ft 435 kts 326°
2026-05-01 13:16 32.18989 29.31824 37978 ft 433 kts 326°
2026-05-01 13:16 32.23388 29.29011 37981 ft 432 kts 325°
2026-05-01 13:17 32.33950 29.22238 37985 ft 431 kts 325°
2026-05-01 13:18 32.41813 29.17183 37985 ft 430 kts 325°
2026-05-01 13:18 32.47067 29.13801 37980 ft 430 kts 325°
2026-05-01 13:19 32.52327 29.10409 37982 ft 431 kts 325°
2026-05-01 13:20 32.60263 29.05286 37984 ft 433 kts 325°
2026-05-01 13:20 32.65543 29.01871 37980 ft 432 kts 325°
2026-05-01 13:21 32.73462 28.96739 37976 ft 432 kts 325°
2026-05-01 13:21 32.78737 28.93317 37979 ft 431 kts 325°
2026-05-01 13:22 32.83984 28.89906 37982 ft 429 kts 324°
2026-05-01 13:22 32.89234 28.86489 37981 ft 431 kts 325°
2026-05-01 13:23 32.94495 28.83060 37973 ft 431 kts 325°
2026-05-01 13:23 32.99774 28.79615 37961 ft 433 kts 324°
2026-05-01 13:24 33.05054 28.76166 37967 ft 433 kts 324°
2026-05-01 13:25 33.12964 28.70988 37964 ft 432 kts 324°
2026-05-01 13:25 33.18217 28.67543 37960 ft 431 kts 324°
2026-05-01 13:26 33.23462 28.64099 37969 ft 429 kts 324°
2026-05-01 13:26 33.28661 28.60679 37972 ft 430 kts 324°
2026-05-01 13:27 33.33903 28.57229 37980 ft 430 kts 324°
2026-05-01 13:27 33.41775 28.52036 37978 ft 431 kts 324°
2026-05-01 13:28 33.49657 28.46827 37975 ft 431 kts 324°
2026-05-01 13:29 33.60190 28.39849 37965 ft 431 kts 324°
2026-05-01 13:31 33.75871 28.29420 37978 ft 431 kts 324°
2026-05-01 13:32 33.89244 28.21126 37979 ft 432 kts 326°
2026-05-01 13:33 34.02685 28.13045 37972 ft 432 kts 326°
2026-05-01 13:34 34.13426 28.06566 37982 ft 434 kts 326°
2026-05-01 13:35 34.21534 28.01663 37979 ft 434 kts 326°
2026-05-01 13:36 34.29626 27.96760 37979 ft 433 kts 326°
2026-05-01 13:36 34.37710 27.91849 37968 ft 434 kts 325°
2026-05-01 13:37 34.43069 27.88589 37972 ft 433 kts 325°
2026-05-01 13:37 34.48453 27.85308 37963 ft 433 kts 325°
2026-05-01 13:38 34.56528 27.80380 37963 ft 432 kts 325°
2026-05-01 13:39 34.61906 27.77091 38002 ft 432 kts 325°
2026-05-01 13:39 34.67286 27.73796 37976 ft 433 kts 325°
2026-05-01 13:40 34.72670 27.70494 37978 ft 433 kts 325°
2026-05-01 13:40 34.78052 27.67188 37981 ft 433 kts 325°
2026-05-01 13:41 34.83387 27.63906 37984 ft 432 kts 325°
2026-05-01 13:41 34.88755 27.60600 38012 ft 433 kts 325°
2026-05-01 13:42 34.94043 27.57337 37983 ft 433 kts 325°
2026-05-01 13:42 34.99428 27.54010 37982 ft 433 kts 325°
2026-05-01 13:43 35.04810 27.50680 37983 ft 434 kts 325°
2026-05-01 13:43 35.10191 27.47346 37997 ft 434 kts 325°
2026-05-01 13:44 35.15571 27.44007 37983 ft 432 kts 324°
2026-05-01 13:44 35.20925 27.40679 37982 ft 431 kts 324°
2026-05-01 13:45 35.26282 27.37344 37983 ft 433 kts 324°
2026-05-01 13:45 35.31657 27.33994 37983 ft 434 kts 324°
2026-05-01 13:46 35.37046 27.30629 37993 ft 435 kts 324°
2026-05-01 13:46 35.42445 27.27255 37981 ft 435 kts 324°
2026-05-01 13:47 35.47805 27.23897 37986 ft 434 kts 324°
2026-05-01 13:47 35.53185 27.20523 37987 ft 434 kts 324°
2026-05-01 13:48 35.58567 27.17143 37994 ft 435 kts 324°
2026-05-01 13:48 35.63942 27.13763 37988 ft 433 kts 324°
2026-05-01 13:49 35.69308 27.10380 37997 ft 435 kts 324°
2026-05-01 13:49 35.74695 27.06983 37992 ft 434 kts 324°
2026-05-01 13:50 35.80061 27.03591 37986 ft 433 kts 324°
2026-05-01 13:50 35.85411 27.00205 37983 ft 432 kts 324°
2026-05-01 13:51 35.90767 26.96809 37990 ft 434 kts 324°
2026-05-01 13:51 35.96139 26.93399 37996 ft 436 kts 324°
2026-05-01 13:52 36.01530 26.89973 38001 ft 434 kts 324°
2026-05-01 13:52 36.06901 26.86552 38007 ft 433 kts 323°
2026-05-01 13:53 36.12262 26.83132 37998 ft 434 kts 323°
2026-05-01 13:53 36.20305 26.77992 37998 ft 434 kts 323°
2026-05-01 13:54 36.25686 26.74545 38009 ft 437 kts 323°
2026-05-01 13:54 36.31096 26.71079 38016 ft 437 kts 323°
2026-05-01 13:55 36.36463 26.67632 37994 ft 435 kts 323°
2026-05-01 13:55 36.41851 26.64164 37987 ft 436 kts 323°
2026-05-01 13:56 36.47244 26.60690 38035 ft 436 kts 323°
2026-05-01 13:56 36.52655 26.57196 38008 ft 439 kts 323°
2026-05-01 13:57 36.57164 26.54286 38011 ft 439 kts 323°
2026-05-01 13:57 36.63497 26.50184 38017 ft 439 kts 323°
2026-05-01 13:58 36.68919 26.46670 38017 ft 439 kts 323°
2026-05-01 13:58 36.74312 26.43166 38014 ft 441 kts 323°
2026-05-01 13:59 36.79761 26.39623 38013 ft 441 kts 323°
2026-05-01 13:59 36.85205 26.36076 38019 ft 440 kts 323°
2026-05-01 14:00 36.90639 26.32529 38017 ft 439 kts 323°
2026-05-01 14:00 36.96045 26.28995 38014 ft 438 kts 323°
2026-05-01 14:01 37.01426 26.25470 38047 ft 441 kts 323°
2026-05-01 14:01 37.06879 26.21896 38021 ft 443 kts 323°
2026-05-01 14:02 37.12337 26.18311 38030 ft 443 kts 323°
2026-05-01 14:02 37.16912 26.15301 38025 ft 443 kts 323°
2026-05-01 14:03 37.22347 26.11721 38028 ft 443 kts 323°
2026-05-01 14:03 37.27803 26.08120 38039 ft 444 kts 323°
2026-05-01 14:04 37.33261 26.04514 38039 ft 442 kts 323°
2026-05-01 14:04 37.38701 26.00911 38041 ft 441 kts 323°
2026-05-01 14:05 37.44133 25.97309 38039 ft 440 kts 323°
2026-05-01 14:05 37.49548 25.93712 38051 ft 441 kts 323°
2026-05-01 14:06 37.54893 25.90153 38050 ft 444 kts 323°
2026-05-01 14:06 37.60280 25.86393 38067 ft 438 kts 319°
2026-05-01 14:07 37.65437 25.82263 38053 ft 438 kts 319°
2026-05-01 14:08 37.73157 25.76063 38063 ft 438 kts 319°
2026-05-01 14:08 37.78309 25.71924 38065 ft 439 kts 319°
2026-05-01 14:09 37.83421 25.67803 38069 ft 439 kts 319°
2026-05-01 14:09 37.88575 25.63644 38077 ft 439 kts 319°
2026-05-01 14:10 37.93725 25.59480 38071 ft 439 kts 319°
2026-05-01 14:10 37.98884 25.55303 38072 ft 440 kts 319°
2026-05-01 14:11 38.04047 25.51113 38080 ft 442 kts 319°
2026-05-01 14:11 38.11784 25.44827 38083 ft 438 kts 319°
2026-05-01 14:12 38.16911 25.40648 38083 ft 438 kts 319°
2026-05-01 14:12 38.22012 25.36486 38089 ft 439 kts 319°
2026-05-01 14:13 38.27163 25.32276 38098 ft 440 kts 319°
2026-05-01 14:13 38.32334 25.28038 38092 ft 444 kts 319°
2026-05-01 14:14 38.37531 25.23781 38111 ft 444 kts 319°
2026-05-01 14:14 38.42718 25.19517 38109 ft 442 kts 319°
2026-05-01 14:15 38.47884 25.15265 38106 ft 441 kts 319°
2026-05-01 14:15 38.53009 25.11040 38111 ft 440 kts 319°
2026-05-01 14:16 38.58178 25.06767 38117 ft 446 kts 319°
2026-05-01 14:16 38.63397 25.02454 38127 ft 447 kts 319°
2026-05-01 14:17 38.68630 24.98114 38134 ft 449 kts 320°
2026-05-01 14:17 38.73877 24.93759 38136 ft 449 kts 320°
2026-05-01 14:18 38.79114 24.89403 38137 ft 448 kts 319°
2026-05-01 14:18 38.83469 24.85772 38122 ft 451 kts 320°
2026-05-01 14:19 38.89600 24.80659 38134 ft 452 kts 320°
2026-05-01 14:19 38.94898 24.76227 38133 ft 452 kts 320°
2026-05-01 14:20 39.02776 24.69626 38133 ft 452 kts 320°
2026-05-01 14:21 39.08033 24.65208 38166 ft 451 kts 320°
2026-05-01 14:21 39.13335 24.60744 38153 ft 457 kts 320°
2026-05-01 14:22 39.21298 24.54030 38156 ft 455 kts 320°
2026-05-01 14:22 39.26581 24.49564 38158 ft 454 kts 320°
2026-05-01 14:23 39.31856 24.45097 38154 ft 453 kts 320°
2026-05-01 14:23 39.37142 24.40609 38168 ft 457 kts 321°
2026-05-01 14:24 39.42469 24.36083 38174 ft 459 kts 321°
2026-05-01 14:24 39.47808 24.31536 38176 ft 459 kts 321°
2026-05-01 14:25 39.53149 24.26979 38179 ft 459 kts 321°
2026-05-01 14:25 39.58443 24.22454 38181 ft 458 kts 321°
2026-05-01 14:26 39.66466 24.15579 38180 ft 461 kts 321°
2026-05-01 14:27 39.71809 24.10990 38185 ft 461 kts 321°
2026-05-01 14:27 39.77154 24.06390 38195 ft 461 kts 321°
2026-05-01 14:28 39.85191 23.99458 38184 ft 463 kts 322°
2026-05-01 14:28 39.90578 23.94801 38185 ft 463 kts 321°
2026-05-01 14:29 39.95907 23.90186 38184 ft 463 kts 321°
2026-05-01 14:30 40.06552 23.80937 38184 ft 462 kts 321°
2026-05-01 14:31 40.14588 23.73932 38207 ft 465 kts 322°
2026-05-01 14:31 40.19971 23.69231 38211 ft 464 kts 322°
2026-05-01 14:32 40.25344 23.64527 38212 ft 464 kts 322°
2026-05-01 14:32 40.29153 23.61185 38213 ft 464 kts 322°
2026-05-01 14:33 40.34511 23.56481 38220 ft 463 kts 322°
2026-05-01 14:33 40.39861 23.51771 38222 ft 463 kts 322°
2026-05-01 14:34 40.45213 23.47052 38223 ft 464 kts 322°
2026-05-01 14:34 40.50571 23.42318 38234 ft 465 kts 322°
2026-05-01 14:35 40.55928 23.37577 38221 ft 463 kts 322°
2026-05-01 14:35 40.61267 23.32841 38232 ft 462 kts 322°
2026-05-01 14:36 40.66615 23.28088 38234 ft 465 kts 322°
2026-05-01 14:36 40.71952 23.23336 38239 ft 466 kts 322°
2026-05-01 14:37 40.77313 23.18553 38232 ft 465 kts 322°
2026-05-01 14:37 40.82660 23.13773 38224 ft 464 kts 322°
2026-05-01 14:38 40.88004 23.08985 38228 ft 465 kts 322°
2026-05-01 14:38 40.93366 23.04174 38228 ft 465 kts 322°
2026-05-01 14:39 40.98716 22.99362 38225 ft 465 kts 322°
2026-05-01 14:39 41.04075 22.94533 38225 ft 465 kts 322°
2026-05-01 14:40 41.09384 22.89739 38243 ft 465 kts 322°
2026-05-01 14:40 41.14734 22.84898 38217 ft 466 kts 322°
2026-05-01 14:41 41.20086 22.80047 38214 ft 466 kts 322°
2026-05-01 14:41 41.25270 22.74923 38233 ft 461 kts 313°
2026-05-01 14:42 41.29629 22.68673 38224 ft 462 kts 310°
2026-05-01 14:42 41.33952 22.62346 38221 ft 462 kts 310°
2026-05-01 14:43 41.38281 22.55997 38211 ft 464 kts 310°
2026-05-01 14:43 41.42588 22.49668 38207 ft 464 kts 310°
2026-05-01 14:44 41.46914 22.43295 38215 ft 464 kts 310°
2026-05-01 14:44 41.53405 22.33710 38215 ft 464 kts 310°
2026-05-01 14:45 41.59889 22.24103 38218 ft 464 kts 310°
2026-05-01 14:46 41.64205 22.17690 38225 ft 464 kts 310°
2026-05-01 14:46 41.70680 22.08047 38214 ft 467 kts 310°
2026-05-01 14:47 41.75022 22.01561 38217 ft 467 kts 310°
2026-05-01 14:48 41.81507 21.91847 38231 ft 465 kts 310°
2026-05-01 14:48 41.87956 21.82157 38227 ft 464 kts 310°
2026-05-01 14:49 41.96594 21.69127 38242 ft 469 kts 310°
2026-05-01 14:50 42.05229 21.56042 38236 ft 469 kts 310°
2026-05-01 14:51 42.11023 21.47231 38243 ft 470 kts 310°
2026-05-01 14:52 42.17467 21.37378 38247 ft 468 kts 310°
2026-05-01 14:53 42.23782 21.27289 38261 ft 470 kts 310°
2026-05-01 14:53 42.28029 21.20575 38241 ft 470 kts 309°
2026-05-01 14:54 42.32253 21.13825 38243 ft 470 kts 310°
2026-05-01 14:54 42.36493 21.07069 38270 ft 472 kts 310°
2026-05-01 14:55 42.40728 21.00285 38269 ft 472 kts 310°
2026-05-01 14:55 42.44960 20.93502 38274 ft 471 kts 310°
2026-05-01 14:56 42.49179 20.86717 38254 ft 471 kts 310°
2026-05-01 14:56 42.53401 20.79915 38247 ft 473 kts 310°
2026-05-01 14:57 42.57610 20.73119 38266 ft 474 kts 310°
2026-05-01 14:57 42.63943 20.62860 38255 ft 471 kts 310°
2026-05-01 14:58 42.68146 20.56035 38254 ft 471 kts 310°
2026-05-01 14:58 42.72350 20.49190 38255 ft 472 kts 310°
2026-05-01 14:59 42.76563 20.42314 38256 ft 472 kts 311°
2026-05-01 14:59 42.80754 20.35462 38254 ft 470 kts 311°
2026-05-01 15:00 42.87441 20.25655 38265 ft 470 kts 316°
2026-05-01 15:01 42.92062 20.19345 38255 ft 470 kts 316°
2026-05-01 15:01 42.96689 20.13049 38242 ft 471 kts 316°
2026-05-01 15:02 43.01342 20.06682 38244 ft 475 kts 316°
2026-05-01 15:02 43.05995 20.00311 38247 ft 472 kts 316°
2026-05-01 15:03 43.10632 19.93944 38246 ft 471 kts 316°
2026-05-01 15:03 43.15221 19.87629 38244 ft 470 kts 316°
2026-05-01 15:04 43.19831 19.81273 38244 ft 470 kts 316°
2026-05-01 15:04 43.24434 19.74909 38242 ft 470 kts 316°
2026-05-01 15:05 43.29049 19.68516 38250 ft 474 kts 316°
2026-05-01 15:05 43.33695 19.62063 38249 ft 474 kts 316°
2026-05-01 15:06 43.38339 19.55600 38257 ft 475 kts 316°
2026-05-01 15:06 43.42968 19.49140 38252 ft 474 kts 316°
2026-05-01 15:07 43.47580 19.42694 38255 ft 475 kts 316°
2026-05-01 15:07 43.52186 19.36236 38248 ft 475 kts 316°
2026-05-01 15:08 43.56805 19.29748 38267 ft 474 kts 316°
2026-05-01 15:08 43.61408 19.23267 38255 ft 471 kts 317°
2026-05-01 15:09 43.65999 19.16787 38249 ft 472 kts 317°
2026-05-01 15:09 43.70594 19.10287 38262 ft 472 kts 316°
2026-05-01 15:10 43.75188 19.03773 38260 ft 472 kts 316°
2026-05-01 15:10 43.82029 18.94044 38269 ft 472 kts 317°
2026-05-01 15:11 43.88893 18.84248 38283 ft 474 kts 317°
2026-05-01 15:12 43.93489 18.77669 38287 ft 474 kts 317°
2026-05-01 15:12 44.00193 18.68048 38271 ft 475 kts 317°
2026-05-01 15:14 44.11652 18.51520 38278 ft 474 kts 317°
2026-05-01 15:14 44.18510 18.41581 38287 ft 474 kts 317°
2026-05-01 15:15 44.27643 18.28290 38288 ft 474 kts 317°
2026-05-01 15:16 44.36783 18.14926 38299 ft 477 kts 317°
2026-05-01 15:18 44.48157 17.98202 38300 ft 474 kts 317°
2026-05-01 15:19 44.57221 17.84806 38298 ft 475 kts 318°
2026-05-01 15:19 44.64055 17.74659 38307 ft 477 kts 318°
2026-05-01 15:20 44.70873 17.64499 38310 ft 474 kts 318°
2026-05-01 15:21 44.75371 17.57779 38312 ft 475 kts 318°
2026-05-01 15:21 44.79901 17.50991 38314 ft 476 kts 318°
2026-05-01 15:22 44.86690 17.40790 38325 ft 476 kts 318°
2026-05-01 15:22 44.91212 17.33971 38319 ft 475 kts 319°
2026-05-01 15:23 44.95718 17.27163 38314 ft 474 kts 319°
2026-05-01 15:23 45.00214 17.20352 38306 ft 473 kts 318°
2026-05-01 15:24 45.04674 17.13580 38307 ft 474 kts 318°
2026-05-01 15:24 45.09379 17.07136 38312 ft 469 kts 323°
2026-05-01 15:25 45.14176 17.00854 38318 ft 469 kts 323°
2026-05-01 15:25 45.18972 16.94587 38325 ft 470 kts 323°
2026-05-01 15:26 45.23777 16.88279 38324 ft 470 kts 323°
2026-05-01 15:26 45.28581 16.81963 38296 ft 470 kts 323°
2026-05-01 15:27 45.33359 16.75662 38314 ft 467 kts 323°
2026-05-01 15:28 45.40464 16.66270 38311 ft 465 kts 323°
2026-05-01 15:28 45.45207 16.59981 38316 ft 466 kts 323°
2026-05-01 15:29 45.52316 16.50524 38327 ft 467 kts 323°
2026-05-01 15:30 45.61020 16.38899 38327 ft 467 kts 323°
2026-05-01 15:31 45.75966 16.18817 38315 ft 466 kts 322°
2026-05-01 15:32 45.85412 16.06045 38329 ft 468 kts 322°
2026-05-01 15:34 45.99504 15.86874 38316 ft 465 kts 322°